Home > Weather > Pembroke Pines > Past weeks

Flag for U.S.A. Weather for the Past 2 Weeks in Pembroke Pines, Florida, U.S.A.

Now
78 °F

Passing clouds.


Feels Like: 80 °F
Forecast: 59 / 79 °F
Wind: 9 mph from Southeast

Location: North Perry Airport

Current Time: Feb 6, 2016 at 3:38:06 PM

Latest Report: Feb 6, 2016 at 2:53 PM


Visibility: 10 mi

Pressure: 30.03 "Hg

Humidity: 60%

Dew point: 63 °F

Location of Pembroke PinesLocation

Historic Weather in Pembroke Pines — Graph

°F

Pembroke Pines Temperature Yesterday

Maximum temperature yesterday: 73 °F (at 1:53 AM)
Minimum temperature yesterday: 59 °F (at 7:53 AM)
Average temperature yesterday: 65 °F

High & Low Weather Summary for the Past Weeks

 TemperatureHumidityPressure
High81 °F (Feb 2, 11:53 AM)100% (Jan 28, 5:53 AM)30.30 "Hg (Jan 28, 5:53 AM)
Low44 °F (Jan 24, 6:53 AM)34% (Jan 23, 3:53 PM)29.77 "Hg (Jan 22, 4:53 PM)
Average68 °F75%30.07 "Hg
* Reported Jan 22 1:04 PM — Feb 6 1:53 PM, Pembroke Pines, Weather by CustomWeather, © 2016

Note: Actual official high and low records may vary slightly from our data, if they occured in-between our weather recording intervals... More about our weather records

Advertising

Pembroke Pines Weather History for the Previous 24 Hours

 ConditionsComfort  
Time TempWeatherWind HumidityBarometerVisibility
1:53 PM
Sat, Feb 6
80 °FPartly sunny.7 mph58%30.06 "Hg10 mi
12:53 PM77 °FPassing clouds.7 mph64%30.10 "Hg10 mi
12:00 PM77 °FPartly sunny.5 mph69%30.14 "Hg10 mi
10:53 AM76 °FBroken clouds.8 mph67%30.15 "Hg10 mi
9:53 AM73 °FSunny.No wind71%30.16 "Hg10 mi
8:53 AM67 °FPassing clouds.No wind79%30.15 "Hg10 mi
7:53 AM63 °FOvercast.6 mph87%30.14 "Hg10 mi
6:53 AM61 °FOvercast.8 mph90%30.13 "Hg10 mi
5:53 AM59 °FClear.3 mph93%30.09 "Hg10 mi
4:53 AM61 °FPassing clouds.5 mph87%30.10 "Hg10 mi
3:53 AM60 °FPassing clouds.3 mph86%30.10 "Hg10 mi
2:53 AM59 °FPassing clouds.5 mph87%30.10 "Hg10 mi
1:53 AM60 °FPassing clouds.6 mph83%30.14 "Hg10 mi
12:53 AM61 °FOvercast.5 mph81%30.15 "Hg10 mi
11:53 PM
Fri, Feb 5
64 °FMostly cloudy.5 mph78%30.16 "Hg10 mi
10:53 PM65 °FOvercast.8 mph73%30.17 "Hg10 mi
9:53 PM66 °FOvercast.7 mph70%30.16 "Hg10 mi
8:53 PM66 °FOvercast.8 mph68%30.17 "Hg10 mi
7:53 PM66 °FOvercast.6 mph68%30.17 "Hg10 mi
6:53 PM66 °FOvercast.8 mph63%30.16 "Hg10 mi
5:53 PM66 °FMostly cloudy.9 mph61%30.16 "Hg10 mi
4:53 PM66 °FOvercast.16 mph59%30.15 "Hg10 mi
3:53 PM66 °FOvercast.14 mph59%30.14 "Hg10 mi
Weather by CustomWeather, © 2016

See weather overviewHow to use our weather pages